Park Rapids, MN

8:12 PM CDT on May 22, 2017 (GMT -0500)
Park Rapids Municipal

Weather History for KPKD - October, 2013

Change the Weather History Date:

Tuesday, October 8, 2013

  Actual Average Record
Temperature  
Mean Temperature 60 °F -  
Max Temperature 75 °F 58 °F 81 °F (2003)
Min Temperature 46 °F 36 °F 16 °F (2000)
Degree Days  
Heating Degree Days 4    
Growing Degree Days 10 (Base 50)    
Moisture  
Dew Point 44 °F    
Average Humidity 60    
Maximum Humidity 83    
Minimum Humidity 33    
Precipitation  
Precipitation 0.00 in - - ()
Sea Level Pressure  
Sea Level Pressure 29.75 in    
Wind  
Wind Speed 12 mph (South)    
Max Wind Speed 25 mph    
Max Gust Speed 32 mph    
Visibility 10 miles    
Events      
Averages and records for this station are not official NWS values.
T = Trace of Precipitation, MM = Missing Value Source: NWS Daily Summary

Daily Weather History Graph

Daily Weather History Graph

Search for Another Location

Airport or City:

Trip Planner

Search our weather history database for the weather conditions in past years. The results will help you decide how hot, cold, wet, or windy it might be!

Date:

Astronomy

Oct. 08, 2013 Rise Set
Actual Time 7:28 AM CDT 6:45 PM CDT
Civil Twilight 6:58 AM CDT 7:16 PM CDT
Nautical Twilight 6:23 AM CDT 7:51 PM CDT
Astronomical Twilight 5:47 AM CDT 8:26 PM CDT
Moon 11:38 AM CDT (10/8) 9:08 PM CDT (10/8)
Length of Visible Light 12h 17m
Length of Day
11h 16m
Waxing Crescent, 16% of the Moon is Illuminated
Oct 8
Waxing Crescent
Oct 11
First Quarter
Oct 18
Full
Oct 26
Last Quarter
Nov 3
New

Hourly Weather History & Observations

Time (CDT) Temp. Windchill Dew Point Humidity Pressure Visibility Wind Dir Wind Speed Gust Speed Precip Events Conditions
12:53 AM 46.9 °F - 39.0 °F 74% 29.88 in 10.0 mi SE 6.9 mph - N/A   Clear
1:53 AM 46.9 °F - 39.9 °F 77% 29.87 in 10.0 mi SSE 10.4 mph - N/A   Clear
2:53 AM 46.9 °F - 39.0 °F 74% 29.85 in 10.0 mi SSE 12.7 mph - N/A   Clear
3:53 AM 46.0 °F 41.0 °F 39.9 °F 79% 29.83 in 10.0 mi SSE 10.4 mph - N/A   Clear
4:53 AM 46.0 °F 40.6 °F 41.0 °F 83% 29.81 in 10.0 mi SSE 11.5 mph - N/A   Clear
5:53 AM 48.0 °F - 42.1 °F 80% 29.78 in 10.0 mi SSE 13.8 mph - N/A   Clear
6:53 AM 48.0 °F - 42.1 °F 80% 29.76 in 10.0 mi SSE 10.4 mph - N/A   Clear
7:53 AM 50.0 °F - 42.1 °F 74% 29.74 in 10.0 mi SSE 15.0 mph - N/A   Clear
8:53 AM 52.0 °F - 43.0 °F 71% 29.74 in 10.0 mi SSE 12.7 mph - N/A   Clear
9:53 AM 55.0 °F - 43.0 °F 64% 29.73 in 10.0 mi South 15.0 mph - N/A   Clear
10:53 AM 60.1 °F - 45.0 °F 57% 29.71 in 10.0 mi South 13.8 mph - N/A   Clear
11:53 AM 66.0 °F - 45.0 °F 47% 29.68 in 10.0 mi South 16.1 mph 25.3 mph N/A   Clear
12:53 PM 72.0 °F - 45.0 °F 38% 29.67 in 10.0 mi SSW 21.9 mph 26.5 mph N/A   Clear
1:53 PM 73.9 °F - 45.0 °F 35% 29.65 in 10.0 mi South 25.3 mph 29.9 mph N/A   Clear
2:53 PM 75.0 °F - 45.0 °F 34% 29.65 in 10.0 mi South 19.6 mph 32.2 mph N/A   Clear
3:53 PM 73.9 °F - 43.0 °F 33% 29.67 in 10.0 mi SSW 19.6 mph 29.9 mph N/A   Clear
4:53 PM 72.0 °F - 45.0 °F 38% 29.68 in 10.0 mi South 12.7 mph - N/A   Clear
5:53 PM 70.0 °F - 46.0 °F 42% 29.70 in 10.0 mi SSW 8.1 mph - N/A   Clear
6:53 PM 64.9 °F - 46.9 °F 52% 29.71 in 10.0 mi South 6.9 mph - N/A   Clear
7:53 PM 66.0 °F - 46.0 °F 48% 29.73 in 10.0 mi South 11.5 mph - N/A   Clear
8:53 PM 62.1 °F - 46.0 °F 56% 29.76 in 10.0 mi SSW 5.8 mph - N/A   Clear
9:53 PM 60.1 °F - 46.0 °F 60% 29.76 in 10.0 mi South 5.8 mph - N/A   Clear
10:53 PM 57.9 °F - 46.0 °F 65% 29.78 in 10.0 mi South 8.1 mph - N/A   Clear
11:53 PM 57.0 °F - 46.9 °F 69% 29.79 in 10.0 mi South 4.6 mph - N/A   Clear